Flag for Brazil Weather past 2 weeks in Belo Horizonte, Minas Gerais, Brazil

Now
77 °F

Clear.


Feels Like: 79 °F
Forecast: 67 / 84 °F
Wind: 1 mph from Southwest

Location: Belo Horizonte Airport

Current Time: Mar 29, 2015 at 9:43:10 PM

Latest Report: Mar 29, 2015 at 9:00 PM


Visibility: 10 mi

Pressure: 30.07 "Hg

Humidity: 65%

Dew point: 64 °F

Location of Belo HorizonteLocation

Historic Weather in Belo Horizonte — Graph

°F

Belo Horizonte temperature yesterday

Maximum temperature yesterday: 86 °F (at 2:00 PM)
Minimum temperature yesterday: 68 °F (at 5:00 AM)
Average temperature yesterday: 77 °F

Past Weeks' High & Low Weather Summary

 TemperatureHumidityPressure
High86 °F (Mar 26, 3:00 PM)100% (Mar 17, 11:00 AM)30.21 "Hg (Mar 17, 11:00 AM)
Low32 °F (Mar 24, 1:00 AM)39% (Mar 18, 4:00 PM)29.92 "Hg (Mar 20, 4:00 PM)
Average74 °F70%30.07 "Hg
* Reported Mar 14 8:00 PM — Mar 29 8:00 PM, Belo Horizonte, Weather by CustomWeather, © 2015

Note: Actual official high and low records may vary slightly from our data, if they occured in-between our weather recording intervals... More about our weather records

Advertising

Belo Horizonte weather history for previous 24 hours

 ConditionsComfort  
Time TempWeatherWind HumidityBarometerVisibility
8:00 PM
Sun, Mar 29
79 °FClear.2 mph61%30.04 "Hg10 mi
7:00 PM81 °FClear.2 mph58%30.01 "Hg10 mi
6:00 PM82 °FClear.2 mph51%30.01 "Hg10 mi
5:00 PM82 °FPassing clouds.6 mph55%30.01 "HgN/A
4:00 PM86 °FPassing clouds.2 mph43%30.01 "HgN/A
3:00 PM86 °FPassing clouds.3 mph46%30.04 "HgN/A
2:00 PM84 °FPassing clouds.5 mph45%30.04 "HgN/A
1:00 PM84 °FPassing clouds.6 mph45%30.09 "HgN/A
12:00 PM82 °FPassing clouds.7 mph48%30.12 "HgN/A
11:00 AM81 °FSunny.5 mph51%30.12 "Hg10 mi
10:00 AM79 °FSunny.5 mph58%30.15 "Hg10 mi
9:00 AM75 °FSunny.8 mph57%30.15 "Hg10 mi
8:00 AM72 °FSunny.3 mph69%30.12 "Hg10 mi
7:00 AM70 °FSunny.3 mph69%30.09 "Hg10 mi
6:00 AM68 °FClear.3 mph78%30.09 "Hg10 mi
5:00 AM68 °FClear.1 mph78%30.07 "Hg10 mi
4:00 AM68 °FClear.3 mph83%30.04 "Hg10 mi
3:00 AM70 °FClear.2 mph78%30.07 "Hg10 mi
2:00 AM73 °FClear.6 mph65%30.07 "Hg10 mi
1:00 AM73 °FClear.7 mph65%30.09 "Hg10 mi
12:00 AM72 °FClear.2 mph73%30.12 "Hg10 mi
11:00 PM
Sat, Mar 28
73 °FClear.No wind69%30.09 "Hg10 mi
10:00 PM75 °FClear.3 mph65%30.12 "Hg10 mi
9:00 PM77 °FClear.5 mph57%30.09 "Hg10 mi
Weather by CustomWeather, © 2015

See weather overviewHow to use our weather pages